• Join FlightAware (Why Join?)
  • Login
  • US Flag 
04:09PM EST


 

Airport Tracker/Info


-or-


 

Live Flight TrackerFlight Track Log ✈ DAL3860 ✈ 19-Sep-2013 ✈ KORF - KDTW

Flight Track Log - Related Links

Times and Time Zones

All times are in EDT time to prevent confusion due to time zone crossing. See the DAL3860 flight status page for this flight to view local times or setup timezone preferences in your user account.

Time Position Orientation Groundspeed Altitude Reporting Facility
EDT Latitude Longitude Course Direction KTS MPH feet Rate Location/Type
09:31AM 36.9036 -76.1919 33° Northeast 141 162 500  Level Washington Center
09:32AM 36.9225 -76.1764 33° Northeast 163 188 1,500 2,176 Climbing Washington Center
09:33AM 36.9556 -76.2208 313° West 231 266 3,800 2,066 Climbing Washington Center
09:34AM 36.9531 -76.3042 268° West 267 307 5,700 2,172 Climbing Washington Center
09:35AM 36.9608 -76.3872 277° West 276 318 8,000 2,361 Climbing Washington Center
09:35AM 36.9608 -76.3925 270° West 275 316 8,100 2,060 Climbing Washington Center
09:36AM 36.9747 -76.4889 280° West 281 323 10,300 1,587 Climbing Washington Center
09:37AM 36.9864 -76.5956 278° West 315 362 11,300 1,231 Climbing Washington Center
09:38AM 37.0019 -76.7103 280° West 333 383 12,700 1,424 Climbing Washington Center
09:39AM 37.0175 -76.8250 280° West 338 389 14,100 1,377 Climbing Washington Center
09:40AM 37.0350 -76.9475 280° West 345 397 15,500 1,377 Climbing Washington Center
09:41AM 37.0483 -77.0700 278° West 357 411 16,900 1,240 Climbing Washington Center
09:42AM 37.0697 -77.1928 282° West 357 411 18,000 610 Climbing Washington Center
09:43AM 37.0928 -77.3181 283° West 357 411 18,100 353 Climbing Washington Center
09:44AM 37.1158 -77.4514 282° West 377 434 18,700 655 Climbing Washington Center
09:45AM 37.1408 -77.5875 283° West 391 450 19,400 857 Climbing Washington Center
09:46AM 37.1658 -77.7186 283° West 396 456 20,400 1,033 Climbing Washington Center
09:47AM 37.2031 -77.8447 290° West 390 449 21,500 934 Climbing Washington Center
09:48AM 37.2656 -77.9561 305° West 380 437 22,300 750 Climbing Washington Center
09:49AM 37.3281 -78.0678 305° West 391 450 23,000 655 Climbing Washington Center
09:50AM 37.3925 -78.1797 306° West 396 456 23,600 645 Climbing Washington Center
09:51AM 37.4506 -78.2839 305° West 401 461 24,300 706 Climbing Washington Center
09:52AM 37.5147 -78.3933 306° West 401 461 25,000 712 Climbing Washington Center
09:53AM 37.5767 -78.5108 304° West 401 461 25,700 492 Climbing Washington Center
09:54AM 37.6406 -78.6261 305° West 406 467 26,000 150 Climbing Washington Center
09:55AM 37.7122 -78.7578 305° West 406 467 26,000 508 Level Washington Center
09:56AM 37.7781 -78.8761 305° West 411 473 27,000 992 Climbing Washington Center
09:57AM 37.8417 -78.9892 305° West 405 466 28,000 496 Climbing Washington Center
09:58AM 37.8969 -79.0944 304° West 405 466 28,000  Level Washington Center
09:59AM 37.9281 -79.2353 286° West 400 460 28,000  Level Washington Center
10:00AM 37.9547 -79.3842 283° West 416 479 28,000  Level Washington Center
10:01AM 37.9831 -79.5464 283° West 427 491 28,000  Level Washington Center
10:02AM 38.0069 -79.6978 281° West 434 499 28,000  Level Washington Center
10:03AM 38.0331 -79.8494 282° West 434 499 28,000  Level Washington Center
10:04AM 38.0575 -79.9828 283° West 434 499 28,000  Level Washington Center
10:05AM 38.0831 -80.1319 282° West 434 499 28,000  Level Washington Center
10:06AM 38.1064 -80.2839 281° West 434 499 28,000  Level Washington Center
10:08AM 38.1522 -80.5472 283° West 441 507 28,000  Level Indianapolis Center
10:09AM 38.1775 -80.6994 282° West 440 506 28,000  Level Indianapolis Center
10:10AM 38.2025 -80.8519 282° West 440 506 28,000  Level Indianapolis Center
10:11AM 38.2333 -81.0353 282° West 442 509 28,000  Level Indianapolis Center
10:12AM 38.2583 -81.1906 282° West 443 510 28,000  Level Indianapolis Center
10:13AM 38.3169 -81.3192 300° West 431 496 28,000  Level Indianapolis Center
10:14AM 38.4297 -81.3658 342° North 424 488 28,000  Level Indianapolis Center
10:15AM 38.5439 -81.4100 343° North 429 494 28,000  Level Indianapolis Center
10:16AM 38.6739 -81.4592 344° North 428 493 28,000  Level Indianapolis Center
10:17AM 38.7878 -81.5047 343° North 429 494 28,000  Level Indianapolis Center
10:18AM 38.9019 -81.5472 344° North 435 501 28,000  Level Indianapolis Center
10:19AM 39.0156 -81.5914 343° North 428 493 28,000  Level Indianapolis Center
10:20AM 39.1306 -81.6358 343° North 430 495 28,000  Level Indianapolis Center
10:21AM 39.2675 -81.6917 342° North 429 494 28,000  Level Indianapolis Center
10:22AM 39.3769 -81.7461 339° North 423 487 28,000  Level Indianapolis Center
10:23AM 39.4831 -81.7981 339° North 409 471 28,000  Level Indianapolis Center
10:24AM 39.5875 -81.8506 339° North 403 464 28,000  Level Indianapolis Center
10:25AM 39.6919 -81.9017 339° North 400 460 28,000  Level Indianapolis Center
10:26AM 39.8106 -81.9617 339° North 400 460 28,000  Level Indianapolis Center
10:27AM 39.8792 -82.0619 312° West 393 452 28,000  Level Indianapolis Center
10:28AM 39.9147 -82.1856 291° West 368 423 28,000  Level Indianapolis Center
10:29AM 39.9522 -82.3069 292° West 365 420 28,000  Level Indianapolis Center
10:30AM 40.0189 -82.3919 316° Northwest 358 412 28,000  Level Indianapolis Center
10:32AM 40.1411 -82.3753 North 371 427 28,000  Level Indianapolis Center
10:33AM 40.2425 -82.3544 North 370 426 28,000  Level Indianapolis Center
10:34AM 40.3514 -82.3322 North 373 429 28,000  Level Indianapolis Center
10:35AM 40.4553 -82.3139 North 371 427 28,000  Level Indianapolis Center
10:36AM 40.5586 -82.3247 355° North 367 422 28,000  Level Indianapolis Center
10:37AM 40.6628 -82.3556 347° North 375 432 28,000  Level Indianapolis Center
10:38AM 40.7639 -82.3836 348° North 370 426 28,000 -290 Level Indianapolis Center
10:39AM 40.8694 -82.4153 347° North 380 437 27,400 -864 Descending Indianapolis Center
10:40AM 40.9839 -82.4472 348° North 413 475 26,300 -1,068 Descending Cleveland Center
10:41AM 41.1022 -82.4825 347° North 426 490 25,300 -968 Descending Cleveland Center
10:42AM 41.2167 -82.5158 348° North 419 482 24,300 -629 Descending Cleveland Center
10:43AM 41.3119 -82.5925 329° Northwest 405 466 24,000 -194 Descending Cleveland Center
10:44AM 41.3947 -82.6869 319° Northwest 391 450 23,900 -1,103 Descending Cleveland Center
10:44AM 41.4386 -82.7394 318° Northwest 388 447 22,400 -3,000 Descending Cleveland Center
10:45AM 41.4772 -82.7839 319° Northwest 390 449 20,800 -2,667 Descending Cleveland Center
10:46AM 41.5244 -82.9133 296° West 382 440 18,000 -2,962 Descending Cleveland Center
10:46AM 41.5497 -82.9631 304° West 373 429 16,900 -3,097 Descending Cleveland Center
10:47AM 41.6206 -82.9967 340° North 362 417 14,800 -2,754 Descending Cleveland Center
10:47AM 41.6422 -83.0172 325° Northwest 353 406 14,100 -2,361 Descending Cleveland Center
10:48AM 41.6933 -83.0481 336° Northwest 354 407 12,400 -2,066 Descending Cleveland Center
10:48AM 41.7339 -83.0772 332° Northwest 342 394 12,000 -387 Descending Cleveland Center
10:49AM 41.7931 -83.1211 331° Northwest 342 394 12,000  Level Cleveland Center
10:49AM 41.8192 -83.1419 329° Northwest 346 398 12,000  Level Cleveland Center
10:50AM 41.8783 -83.1856 331° Northwest 349 402 12,000  Level Cleveland Center
10:50AM 41.9042 -83.2069 328° Northwest 351 404 12,000  Level Cleveland Center
10:51AM 41.9628 -83.2506 331° Northwest 350 403 12,000  Level Cleveland Center
10:51AM 41.9892 -83.2719 329° Northwest 351 404 12,000  Level Cleveland Center
10:52AM 42.0481 -83.3156 331° Northwest 351 404 12,000  Level Cleveland Center
10:52AM 42.0764 -83.3375 330° Northwest 345 397 12,000 -97 Level Cleveland Center
10:53AM 42.1228 -83.3728 331° Northwest 308 354 11,900 -393 Descending Cleveland Center
10:53AM 42.1453 -83.3922 327° Northwest 258 297 11,600 -871 Descending Cleveland Center
10:54AM 42.1842 -83.4206 332° Northwest 258 297 11,000 -581 Descending Cleveland Center
10:54AM 42.2047 -83.4375 329° Northwest 240 276 11,000 -290 Level Cleveland Center
10:55AM 42.2544 -83.4742 331° Northwest 246 283 10,700 -500 Descending Cleveland Center
10:55AM 42.2661 -83.4828 331° Northwest 251 289 10,500 -1,258 Descending Cleveland Center
10:56AM 42.3206 -83.4597 17° North 255 293 9,400 -1,258 Descending Cleveland Center
10:56AM 42.3311 -83.4553 17° North 250 288 9,200 -871 Descending Cleveland Center
10:57AM 42.3778 -83.4178 31° Northeast 234 269 8,500 -885 Descending Cleveland Center
10:57AM 42.3889 -83.4128 18° North 220 253 8,300 -1,161 Descending Cleveland Center
10:58AM 42.4322 -83.3797 29° Northeast 220 253 7,300 -1,180 Descending Cleveland Center
10:58AM 42.4444 -83.3725 24° Northeast 219 252 7,100 -787 Descending Cleveland Center
10:59AM 42.4906 -83.3394 28° Northeast 218 251 6,500 -677 Descending Cleveland Center
10:59AM 42.4978 -83.3347 26° Northeast 218 251 6,400 -1,161 Descending Cleveland Center
11:00AM 42.5439 -83.3006 29° Northeast 217 250 5,300 -1,279 Descending Cleveland Center
11:00AM 42.5553 -83.2947 21° North 222 255 5,100 -1,161 Descending Cleveland Center
11:01AM 42.5728 -83.2408 66° East 213 245 4,100 -1,082 Descending Cleveland Center
11:01AM 42.5689 -83.2258 109° East 202 232 4,000 -97 Descending Cleveland Center
11:02AM 42.5514 -83.1772 116° Southeast 194 223 4,000  Level Cleveland Center
11:03AM 42.5414 -83.1767 178° South 169 194 4,000  Level Cleveland Center
11:04AM 42.4892 -83.1750 179° South 184 212 4,000  Level Cleveland Center
11:04AM 42.4564 -83.1936 203° Southwest 173 199 4,000  Level Cleveland Center
11:05AM 42.4472 -83.2033 218° Southwest 169 194 4,000  Level Cleveland Center
11:05AM 42.4150 -83.2247 206° Southwest 171 197 4,000  Level Cleveland Center
11:06AM 42.4050 -83.2342 215° Southwest 169 194 4,000 -194 Level Cleveland Center
11:07AM 42.3656 -83.2617 207° Southwest 169 194 3,800 -295 Descending Cleveland Center
11:07AM 42.3628 -83.2650 222° Southwest 173 199 3,700 -871 Descending Cleveland Center
11:08AM 42.3247 -83.2919 208° Southwest 168 193 2,900 -896 Descending Cleveland Center
11:08AM 42.3161 -83.2981 208° Southwest 169 194 2,700 -871 Descending Cleveland Center
11:09AM 42.2836 -83.3222 209° Southwest 167 192 2,000 -900 Descending Cleveland Center
11:09AM 42.2781 -83.3294 224° Southwest 136 157 1,800 -677 Descending Cleveland Center
11:10AM 42.2503 -83.3461 204° Southwest 147 169 1,300 -655 Descending Cleveland Center
11:10AM 42.2472 -83.3503 225° Southwest 136 157 1,200 -484 Descending Cleveland Center
11:11AM 42.2211 -83.3692 208° Southwest 141 162 800 -393 Descending Cleveland Center